Vertical_Velocity
-1 -6 -2 8 17 11 -4 -10 -0 -1 -1 -5 1 6 1 1 -6 7 3 4 4 -4 -1 -1 -4 -3 -3 -3 -1 1 -2 -1 -0 0 -1 -0 -0 -2 0 1 0 1 0 1 -2 -3 -3 -2 -0
-1 2 -2 2 11 8 -10 -5 -1 -3 6 -7 -6 -1 -1 5 -7 -3 -4 3 -1 -2 0 -3 -1 -2 -1 -3 -3 -1 1 -1 -2 -1 -1 1 -0 1 -0 -0 -1 -1 -2 -2 -1 -2 -1 -2 -3
-7 -0 16 7 2 1 1 1 0 0 -3 -1 2 -5 4 11 1 -6 -3 2 -0 0 1 -3 -1 -2 -1 -2 -2 -1 1 -1 -1 1 -2 0 0 1 0 2 -1 -0 -2 -1 -1 -1 -0 -1 -1
17 12 4 11 -3 -14 1 -1 -1 -1 1 0 2 2 -5 -8 -2 1 -6 0 1 -2 8 -0 -0 -1 1 -2 -2 -1 -0 1 -2 -3 1 -1 1 2 2 -0 0 1 1 -0 0 -1 -2 -1 0
-6 -1 4 5 -7 -5 -1 -1 1 -1 -1 -0 1 -3 6 -3 -3 -4 -0 2 2 6 -3 1 -1 -0 0 -1 -1 -1 1 -1 -1 -2 -0 1 1 2 1 0 -0 0 1 -1 -1 -0 -1 -1 -1
8 6 6 0 -5 -2 -1 -2 1 1 -2 -1 6 4 9 -5 -6 -2 -3 9 11 2 -4 -1 -3 4 1 2 -2 -1 0 -2 3 -1 -0 2 0 0 -0 3 0 1 -1 -0 -1 0 -1 -0 -1
9 7 -4 -1 -5 -4 -4 2 2 -0 -0 -2 -6 2 12 -1 -5 3 -0 -3 -4 -2 -3 1 -1 2 1 2 1 1 2 -2 0 1 -2 2 0 -0 -0 0 1 -1 1 -1 -1 -3 -1 -2 -1
9 12 1 -3 -1 -11 1 -3 -3 4 -4 12 -2 -3 2 -6 -5 7 6 -2 0 3 1 1 1 0 2 2 2 -0 -0 -1 -1 0 1 -2 2 1 2 0 -0 -2 -2 -1 -1 -1 -0 -0 -1
2 11 -0 -9 6 -10 3 2 7 -9 2 -7 -5 3 -0 -6 -2 -0 -2 2 3 1 -0 1 2 1 0 2 1 1 -1 -0 0 1 0 2 -2 -1 -2 -2 0 1 -1 -0 0 -0 -2 -2 -0
12 9 -7 -1 1 -1 -1 3 -1 11 0 -2 2 5 3 3 2 -2 -1 -0 0 2 0 -0 -0 2 1 2 3 1 -1 -0 -1 1 1 1 2 -5 -4 1 -0 0 1 -2 -1 -1 0 -2 -0
-9 -0 -5 -10 2 6 -0 1 1 4 -1 -6 -5 1 1 1 1 2 1 -2 -2 1 1 0 -2 1 -0 -0 3 1 0 0 -2 -1 3 -2 -2 5 -1 -3 0 1 2 -0 0 -1 -2 -1 -0
14 -3 4 -8 -1 5 0 -1 -3 8 -15 -2 1 8 -4 -6 -4 2 2 0 1 3 3 -0 1 0 -3 -1 1 0 2 0 -2 -2 -2 -0 2 -1 2 2 -2 -0 1 -0 1 -0 -0 -1 -0
7 -5 0 -4 2 -2 5 -4 -6 -7 -5 6 14 -7 13 2 -1 -0 4 1 2 -3 -2 1 1 1 -0 -1 4 2 2 1 3 -4 -4 -2 1 -3 -2 1 2 0 -1 0 -1 -1 -1 -0 1
-4 1 -5 -3 -5 1 13 -9 31 -23 -3 -3 -2 -3 0 1 0 7 1 5 1 -2 -2 0 3 -0 -0 1 3 3 1 1 -1 1 -3 -4 -3 1 -0 -1 0 0 -1 -4 -2 -0 1 1 0
0 10 -2 -5 -7 -8 10 7 -3 -15 -3 1 6 -4 1 -4 4 -3 5 -3 -3 1 -5 -1 3 -1 -1 1 -0 0 2 -1 1 -1 -0 -4 -1 -1 -1 -1 -1 1 -1 -1 -4 -2 0 -0 -1
15 16 9 -21 2 -21 22 -18 -11 3 11 -2 -3 -1 -0 -0 -6 0 -1 -4 6 10 -3 -4 -0 0 2 -2 -1 1 -2 4 1 -3 0 -1 -3 -1 -0 0 -1 -2 -0 -1 -2 -3 -2 -0 0
0 -2 3 -11 -0 1 17 -10 -11 9 -1 -3 1 -2 4 -0 5 -2 0 -2 1 5 3 -1 -4 2 2 1 1 3 -1 1 -1 0 -0 2 -2 -3 -1 -0 -1 0 0 -0 -1 -2 -1 -1 1
-5 4 -1 -2 -18 2 -0 -7 -4 -7 3 -4 -4 -1 1 5 -8 -2 7 -5 5 17 3 1 2 1 4 3 2 2 2 2 0 -0 -3 4 -1 -0 -1 -4 -2 -0 -1 -1 -1 -1 -2 1 0
4 8 3 -9 -9 17 -2 -1 -5 -6 3 1 -4 -1 -1 -1 0 -3 1 4 1 17 3 -4 -7 -3 2 -1 -3 -1 -2 -2 -0 -0 -3 3 -1 -1 0 -1 -1 -1 1 -1 0 -1 -0 -1 -1
3 4 -10 -11 -4 25 -2 -11 -6 -1 -6 -1 -1 -2 -3 1 7 8 -6 3 0 13 1 -1 2 -4 2 4 1 0 1 1 3 2 -2 1 1 -0 0 0 -1 -1 -1 -1 0 1 -1 -2 -1
-4 5 -3 7 -6 -5 9 -10 -3 -15 3 1 -5 -4 1 -1 -1 1 1 -7 2 3 4 -0 2 2 1 6 2 3 4 3 1 0 1 1 1 -0 -0 2 -0 -1 1 0 0 -1 -0 -1 -1
8 -3 3 2 13 -1 14 -19 -6 -4 -2 1 -3 -4 -2 0 -1 10 8 -1 -2 -1 20 -1 -5 3 -2 5 1 -2 -1 -5 3 -3 -0 -2 1 -1 -1 0 0 1 0 -0 0 1 0 0 -3
-26 5 4 3 3 11 -12 19 -31 5 -3 -5 -2 3 4 -1 -2 7 10 6 -8 1 9 -1 -1 -3 -0 5 14 2 -3 -1 1 -0 1 2 2 1 1 1 0 1 0 -1 -0 2 -0 0 -1
-2 4 2 2 5 7 -17 16 -28 -1 -2 2 2 1 0 -2 -3 -5 -5 20 1 -4 -1 6 2 1 -1 -1 2 4 0 3 4 1 2 3 0 -0 -0 1 2 0 -1 1 2 1 1 -1 -2
3 6 -0 7 10 -16 -4 13 -28 3 4 -1 1 3 1 0 -2 -4 -4 -2 16 2 -1 10 4 4 7 -3 -0 3 -1 2 7 1 -6 0 0 -1 -2 0 1 1 0 0 1 1 1 1 0
-2 5 2 0 3 -9 -1 -2 -7 1 1 1 -0 -0 -2 -3 -0 -1 4 -4 -3 7 7 -2 2 2 10 1 -0 5 -0 3 8 3 2 -2 -1 -1 -3 -1 1 2 -1 -2 -2 -1 2 -1 1
-5 13 -2 5 0 8 -4 -2 5 2 3 1 1 -0 2 2 -1 -5 -2 1 3 -4 -4 -1 -4 5 15 -1 1 -4 4 -2 2 4 1 1 -1 -2 -0 -1 -2 -1 1 1 -0 -4 -0 -1 -3
6 7 -3 1 4 -0 -7 -4 -9 7 0 0 -1 0 1 2 -1 1 -5 -4 -3 2 3 2 -0 -1 -4 5 3 2 3 2 13 7 -0 1 6 -3 -0 2 -1 -1 1 1 0 -1 3 -4 -3
7 0 -0 4 1 5 1 3 9 4 3 3 1 1 2 1 0 2 7 -4 -3 -1 -6 -2 -0 4 2 2 9 -8 -1 4 8 5 5 1 1 0 1 3 -1 1 1 2 4 -1 1 -2 1
3 2 -2 4 3 -0 3 -2 -0 0 2 2 -2 -2 1 -3 0 3 -1 5 -2 4 4 3 1 -7 -0 3 20 3 1 -0 -2 5 7 5 -2 -0 -2 1 1 1 -2 -2 -8 3 -10 -6 1
Height
1496 1495 1497 1497 1492 1473 1463 1449 1445 1448 1450 1450 1452 1453 1451 1451 1457 1477 1485 1489 1491 1493 1495 1499 1504 1508 1511 1514 1517 1519 1522 1523 1525 1526 1527 1528 1529 1529 1531 1531 1532 1532 1533 1533 1532 1532 1532 1533 1533
1496 1497 1496 1488 1483 1467 1449 1432 1451 1451 1452 1460 1463 1462 1461 1459 1469 1479 1484 1488 1492 1494 1494 1499 1503 1507 1510 1513 1516 1519 1521 1523 1525 1526 1528 1528 1529 1530 1531 1531 1532 1532 1533 1533 1533 1532 1533 1533 1533
1494 1496 1492 1477 1469 1464 1449 1444 1445 1453 1460 1462 1464 1467 1464 1464 1473 1478 1483 1488 1492 1495 1497 1497 1502 1505 1509 1512 1515 1518 1521 1522 1525 1526 1528 1529 1529 1530 1531 1532 1532 1532 1533 1533 1533 1533 1533 1533 1533
1495 1493 1488 1478 1467 1447 1445 1445 1453 1460 1461 1463 1462 1465 1470 1473 1477 1480 1481 1488 1492 1496 1499 1497 1501 1505 1508 1511 1515 1517 1520 1522 1524 1527 1528 1529 1530 1530 1531 1531 1532 1532 1532 1532 1532 1532 1532 1532 1533
1495 1488 1478 1470 1460 1446 1445 1454 1455 1457 1456 1460 1463 1461 1468 1476 1478 1481 1484 1488 1492 1496 1494 1497 1501 1504 1507 1510 1514 1516 1519 1522 1523 1525 1527 1528 1529 1530 1531 1531 1531 1531 1531 1532 1532 1532 1532 1532 1532
1490 1480 1476 1468 1451 1440 1450 1455 1457 1457 1455 1458 1462 1463 1468 1473 1477 1481 1485 1489 1492 1489 1493 1496 1500 1504 1506 1509 1512 1515 1518 1521 1522 1523 1526 1527 1528 1529 1530 1531 1531 1532 1532 1531 1532 1532 1532 1532 1532
1486 1476 1471 1464 1457 1450 1449 1453 1457 1454 1453 1457 1463 1464 1469 1474 1477 1482 1486 1484 1486 1488 1493 1494 1498 1502 1505 1508 1511 1514 1517 1519 1522 1523 1525 1527 1528 1529 1530 1530 1531 1531 1531 1531 1531 1532 1532 1532 1532
1484 1477 1470 1460 1457 1454 1446 1454 1458 1456 1453 1456 1463 1460 1462 1469 1475 1480 1482 1483 1484 1488 1491 1494 1496 1500 1503 1506 1509 1512 1515 1518 1520 1523 1524 1526 1528 1528 1529 1530 1530 1530 1530 1531 1531 1531 1531 1531 1531
1482 1478 1467 1457 1453 1447 1447 1456 1454 1458 1458 1460 1462 1462 1464 1465 1470 1476 1479 1481 1482 1484 1488 1492 1495 1498 1501 1504 1507 1510 1514 1516 1519 1521 1524 1525 1526 1527 1528 1529 1530 1529 1529 1530 1530 1530 1530 1530 1530
1477 1469 1457 1449 1450 1451 1450 1454 1453 1454 1456 1456 1459 1462 1465 1466 1467 1471 1474 1475 1478 1480 1483 1488 1493 1496 1499 1501 1505 1507 1511 1514 1517 1520 1522 1526 1525 1525 1527 1528 1528 1529 1529 1529 1529 1529 1529 1529 1531
1467 1466 1458 1456 1456 1456 1454 1452 1450 1449 1449 1450 1450 1454 1462 1464 1466 1466 1471 1472 1475 1478 1481 1484 1489 1494 1498 1500 1502 1505 1508 1511 1514 1517 1520 1522 1522 1524 1525 1526 1527 1527 1528 1528 1527 1527 1528 1528 1529
1465 1464 1461 1457 1458 1456 1454 1454 1449 1446 1445 1447 1449 1452 1455 1460 1462 1465 1466 1469 1474 1475 1478 1481 1486 1490 1495 1498 1501 1503 1507 1508 1510 1513 1516 1519 1520 1522 1524 1525 1525 1526 1527 1527 1527 1526 1526 1526 1526
1464 1461 1458 1456 1455 1455 1454 1452 1449 1446 1445 1445 1446 1451 1452 1455 1455 1459 1464 1466 1470 1470 1474 1478 1482 1487 1491 1494 1498 1500 1503 1504 1507 1509 1513 1517 1518 1519 1522 1523 1524 1525 1525 1525 1525 1525 1525 1525 1525
1464 1459 1454 1452 1451 1449 1449 1445 1446 1441 1443 1442 1443 1445 1448 1451 1452 1456 1457 1459 1463 1466 1469 1475 1479 1482 1486 1490 1493 1496 1498 1501 1503 1506 1509 1512 1516 1517 1518 1520 1521 1522 1522 1523 1524 1525 1525 1524 1523
1461 1458 1451 1446 1441 1437 1437 1433 1432 1433 1435 1433 1433 1439 1442 1445 1449 1450 1453 1455 1459 1460 1464 1469 1474 1477 1480 1485 1488 1492 1495 1496 1499 1502 1504 1508 1512 1514 1516 1517 1519 1520 1520 1520 1521 1523 1523 1523 1523
1459 1455 1449 1435 1430 1428 1430 1429 1422 1420 1420 1423 1427 1430 1434 1437 1441 1445 1448 1450 1455 1458 1458 1465 1469 1472 1475 1478 1482 1488 1489 1493 1495 1497 1501 1504 1507 1511 1513 1515 1516 1517 1518 1518 1519 1521 1523 1524 1524
1451 1448 1438 1427 1421 1418 1420 1422 1417 1418 1421 1421 1420 1423 1424 1429 1435 1438 1440 1443 1448 1452 1455 1458 1464 1468 1470 1473 1478 1482 1484 1488 1490 1494 1497 1499 1503 1506 1510 1512 1513 1514 1515 1516 1517 1518 1521 1522 1522
1440 1432 1423 1420 1420 1416 1415 1418 1412 1417 1416 1419 1419 1417 1417 1419 1427 1432 1435 1438 1443 1447 1450 1454 1458 1463 1465 1468 1473 1477 1480 1483 1486 1489 1492 1496 1498 1502 1505 1507 1510 1512 1513 1513 1514 1516 1517 1520 1521
1432 1429 1424 1416 1412 1414 1412 1408 1409 1413 1412 1411 1412 1411 1411 1413 1418 1425 1431 1433 1437 1442 1442 1446 1452 1456 1459 1461 1465 1469 1473 1478 1481 1484 1487 1492 1494 1498 1501 1503 1507 1509 1510 1510 1512 1513 1514 1515 1517
1427 1426 1422 1417 1415 1417 1413 1408 1405 1404 1403 1402 1403 1403 1404 1407 1410 1416 1424 1430 1431 1435 1436 1440 1446 1451 1455 1457 1460 1465 1470 1473 1477 1479 1482 1486 1489 1493 1497 1500 1503 1505 1506 1507 1509 1510 1511 1512 1513
1424 1425 1423 1421 1414 1409 1411 1403 1403 1398 1392 1393 1396 1397 1398 1400 1403 1407 1413 1421 1425 1428 1428 1434 1439 1444 1449 1454 1457 1461 1466 1469 1471 1473 1477 1480 1484 1489 1492 1496 1498 1501 1503 1504 1506 1507 1508 1509 1510
1425 1418 1418 1420 1421 1419 1407 1399 1387 1380 1382 1384 1390 1391 1392 1395 1396 1398 1403 1413 1419 1423 1426 1427 1434 1440 1443 1449 1450 1451 1452 1457 1463 1466 1472 1475 1479 1483 1487 1491 1494 1496 1498 1500 1502 1503 1504 1506 1506
1416 1418 1418 1418 1422 1424 1408 1414 1381 1380 1381 1378 1380 1388 1394 1396 1396 1393 1395 1402 1411 1417 1422 1423 1428 1433 1438 1442 1443 1446 1450 1457 1461 1463 1468 1470 1474 1478 1482 1486 1489 1492 1494 1496 1497 1499 1500 1502 1504
1423 1422 1422 1423 1431 1443 1398 1412 1371 1373 1371 1377 1393 1397 1399 1402 1401 1398 1396 1398 1404 1411 1417 1418 1422 1426 1430 1434 1439 1442 1446 1453 1457 1456 1462 1465 1468 1472 1477 1482 1485 1487 1489 1491 1493 1495 1497 1498 1499
1430 1433 1447 1442 1438 1419 1389 1395 1386 1374 1381 1389 1397 1400 1403 1405 1405 1404 1401 1402 1403 1408 1413 1416 1419 1422 1425 1427 1433 1438 1442 1447 1451 1449 1457 1461 1462 1466 1471 1476 1479 1482 1484 1487 1489 1491 1493 1495 1496
1433 1443 1441 1430 1413 1402 1400 1389 1384 1384 1394 1395 1400 1405 1409 1411 1410 1409 1406 1404 1403 1405 1408 1412 1416 1420 1422 1423 1428 1433 1437 1443 1446 1446 1450 1453 1458 1462 1465 1471 1475 1477 1479 1482 1485 1488 1490 1490 1493
1429 1428 1432 1440 1436 1434 1415 1408 1400 1394 1394 1394 1401 1407 1409 1408 1410 1410 1408 1407 1406 1404 1405 1408 1412 1416 1420 1421 1425 1428 1433 1438 1441 1442 1445 1449 1451 1457 1459 1463 1470 1472 1475 1477 1481 1483 1486 1486 1491
1452 1455 1444 1438 1435 1420 1396 1382 1382 1399 1415 1404 1407 1411 1411 1411 1410 1410 1410 1407 1405 1405 1405 1405 1407 1411 1415 1418 1420 1423 1428 1434 1436 1437 1439 1443 1445 1450 1452 1457 1462 1467 1470 1474 1476 1479 1481 1485 1488
1447 1455 1460 1462 1459 1444 1413 1390 1427 1430 1431 1426 1423 1419 1415 1412 1410 1408 1408 1408 1405 1403 1401 1402 1403 1406 1409 1413 1415 1418 1424 1428 1431 1432 1434 1437 1441 1442 1448 1451 1455 1461 1466 1469 1472 1477 1478 1483 1485
1442 1444 1459 1457 1455 1459 1457 1420 1426 1425 1427 1432 1429 1422 1417 1413 1410 1407 1406 1404 1404 1402 1401 1400 1399 1400 1403 1407 1411 1411 1416 1420 1424 1428 1430 1432 1433 1437 1441 1446 1450 1454 1461 1465 1469 1472 1477 1482 1484